Location: Baia Mare
(47.6567°N, 23.5850°E)
Time: 14:32:01
(UTC+03:00)

ISS - Pass Details

Date: 12 July 2019
Orbit: 409 x 418 km, 51.6° (Epoch: 21 July)

Event Time Altitude Azimuth Distance (km) Brightness Sun altitude
Exits shadow 01:06:26 16° 84° (E) 1,179 -1.5 -20.1°
Drops below altitude 10° 01:07:15 10° 77° (ENE) 1,481 -0.9 -20.1°
Sets 01:09:26 0° 69° (ENE) 2,345 0.2 -20.1°
